CXA9527 ZPPP-ZSNJ

Flight info

Callsign CXA9527
Flight time N/A
Altitude 39100
Route BOVMA W41 OMDUP G471 PLT V172 OMKOB W224 PULES W19 NCH W105 EMRAL V169 IDUKI W50 HFE
Aircraft A339/H-SDE2E3FGHIJ1RWXY/M

Departure

Time 2026-05-04 13:29
Airport Kunming Changshui International Airport (ZPPP)

Arrival

Time N/A
Airport Nanjing Lukou International Airport (ZSNJ)
Time Latitude Longitude Altitude Speed Heading
2026-05-04 13:00 25.10512 102.93052 6923 ft 0 kts 248°
2026-05-04 13:07 25.10514 102.93057 6924 ft 2 kts 248°
2026-05-04 13:08 25.10520 102.93072 6924 ft 2 kts 237°
2026-05-04 13:08 25.10529 102.93085 6924 ft 2 kts 228°
2026-05-04 13:08 25.10540 102.93097 6924 ft 2 kts 219°
2026-05-04 13:08 25.10552 102.93107 6924 ft 2 kts 211°
2026-05-04 13:09 25.10565 102.93115 6924 ft 2 kts 202°
2026-05-04 13:09 25.10579 102.93120 6924 ft 2 kts 193°
2026-05-04 13:09 25.10594 102.93123 6924 ft 2 kts 184°
2026-05-04 13:09 25.10609 102.93123 6924 ft 2 kts 175°
2026-05-04 13:10 25.10624 102.93121 6924 ft 2 kts 166°
2026-05-04 13:10 25.10639 102.93116 6924 ft 2 kts 165°
2026-05-04 13:10 25.10652 102.93117 6924 ft 2 kts 221°
2026-05-04 13:10 25.10661 102.93130 6924 ft 2 kts 237°
2026-05-04 13:11 25.10670 102.93144 6924 ft 2 kts 231°
2026-05-04 13:11 25.10679 102.93157 6924 ft 2 kts 231°
2026-05-04 13:11 25.10685 102.93165 6924 ft 1 kts 232°
2026-05-04 13:11 25.10690 102.93171 6924 ft 0 kts 220°
2026-05-04 13:13 25.10687 102.93169 6924 ft 1 kts 220°
2026-05-04 13:13 25.10680 102.93161 6924 ft 1 kts 228°
2026-05-04 13:13 25.10675 102.93143 6924 ft 2 kts 264°
2026-05-04 13:14 25.10684 102.93119 6924 ft 4 kts 306°
2026-05-04 13:14 25.10713 102.93092 6924 ft 6 kts 332°
2026-05-04 13:14 25.10759 102.93071 6924 ft 7 kts 337°
2026-05-04 13:14 25.10811 102.93045 6924 ft 8 kts 329°
2026-05-04 13:15 25.10857 102.92996 6924 ft 9 kts 308°
2026-05-04 13:15 25.10902 102.92933 6924 ft 10 kts 308°
2026-05-04 13:15 25.10949 102.92865 6924 ft 11 kts 307°
2026-05-04 13:15 25.10998 102.92793 6924 ft 12 kts 307°
2026-05-04 13:16 25.11057 102.92723 6924 ft 12 kts 320°
2026-05-04 13:16 25.11135 102.92735 6924 ft 13 kts 34°
2026-05-04 13:16 25.11256 102.92837 6923 ft 29 kts 38°
2026-05-04 13:16 25.11444 102.92999 6923 ft 34 kts 40°
2026-05-04 13:17 25.11627 102.93158 6923 ft 32 kts 38°
2026-05-04 13:17 25.11799 102.93307 6923 ft 30 kts 39°
2026-05-04 13:17 25.11957 102.93446 6923 ft 27 kts 38°
2026-05-04 13:17 25.12105 102.93574 6923 ft 25 kts 38°
2026-05-04 13:18 25.12240 102.93691 6923 ft 24 kts 38°
2026-05-04 13:18 25.12367 102.93803 6923 ft 22 kts 39°
2026-05-04 13:18 25.12486 102.93907 6923 ft 21 kts 38°
2026-05-04 13:18 25.12598 102.94005 6923 ft 20 kts 38°
2026-05-04 13:19 25.12705 102.94098 6923 ft 19 kts 38°
2026-05-04 13:19 25.12806 102.94184 6923 ft 13 kts 38°
2026-05-04 13:19 25.12820 102.94196 6923 ft 0 kts 38°
2026-05-04 13:21 25.12821 102.94197 6923 ft 0 kts 37°
2026-05-04 13:21 25.12830 102.94205 6923 ft 2 kts 37°
2026-05-04 13:21 25.12847 102.94219 6923 ft 3 kts 37°
2026-05-04 13:22 25.12872 102.94240 6923 ft 5 kts 37°
2026-05-04 13:22 25.12904 102.94267 6923 ft 6 kts 37°
2026-05-04 13:22 25.12944 102.94289 6923 ft 6 kts 356°
2026-05-04 13:22 25.12980 102.94254 6923 ft 7 kts 309°
2026-05-04 13:23 25.12983 102.94249 6923 ft 0 kts 309°
2026-05-04 13:25 25.12987 102.94244 6923 ft 1 kts 309°
2026-05-04 13:26 25.12996 102.94231 6923 ft 2 kts 307°
2026-05-04 13:26 25.13008 102.94209 6923 ft 4 kts 294°
2026-05-04 13:26 25.13017 102.94170 6923 ft 5 kts 273°
2026-05-04 13:26 25.13007 102.94127 6923 ft 6 kts 234°
2026-05-04 13:27 25.12977 102.94098 6923 ft 0 kts 219°
2026-05-04 13:28 25.12972 102.94093 6923 ft 6 kts 219°
2026-05-04 13:28 25.12721 102.93874 6923 ft 83 kts 217°
2026-05-04 13:28 25.12085 102.93324 6924 ft 146 kts 219°
2026-05-04 13:28 25.11167 102.92534 7174 ft 178 kts 218°
2026-05-04 13:29 25.10216 102.91713 7968 ft 171 kts 220°
2026-05-04 13:29 25.09402 102.90859 8632 ft 160 kts 231°
2026-05-04 13:29 25.08773 102.89927 9304 ft 148 kts 240°
2026-05-04 13:29 25.08254 102.88937 9750 ft 152 kts 240°
2026-05-04 13:30 25.07648 102.87966 10204 ft 157 kts 237°
2026-05-04 13:30 25.07004 102.86994 10681 ft 160 kts 237°
2026-05-04 13:30 25.06337 102.85991 11196 ft 168 kts 237°
2026-05-04 13:30 25.05629 102.84936 11762 ft 179 kts 237°
2026-05-04 13:31 25.04853 102.83779 12224 ft 198 kts 237°
2026-05-04 13:31 25.04010 102.82533 12845 ft 209 kts 236°
2026-05-04 13:31 25.03130 102.81235 13541 ft 217 kts 236°
2026-05-04 13:31 25.02213 102.79884 14235 ft 226 kts 237°
2026-05-04 13:32 25.01255 102.78471 14931 ft 236 kts 236°
2026-05-04 13:32 25.00162 102.77118 15611 ft 249 kts 221°
2026-05-04 13:32 24.98598 102.76197 16308 ft 266 kts 200°
2026-05-04 13:32 24.96711 102.75959 17006 ft 284 kts 178°
2026-05-04 13:33 24.94772 102.76585 17711 ft 301 kts 153°
2026-05-04 13:33 24.93162 102.78104 18417 ft 316 kts 128°
2026-05-04 13:33 24.91951 102.80165 19138 ft 326 kts 122°
2026-05-04 13:33 24.90778 102.82338 19853 ft 336 kts 121°
2026-05-04 13:34 24.89565 102.84576 20570 ft 344 kts 122°
2026-05-04 13:34 24.88326 102.86860 21281 ft 352 kts 117°
2026-05-04 13:34 24.87681 102.88979 21861 ft 357 kts 95°
2026-05-04 13:34 24.87856 102.91468 22529 ft 357 kts 69°
2026-05-04 13:35 24.89014 102.93748 23267 ft 353 kts 44°
2026-05-04 13:35 24.92768 102.97181 24806 ft 356 kts 34°
2026-05-04 13:35 24.94698 102.98903 25574 ft 360 kts 36°
2026-05-04 13:36 24.96596 103.00703 26345 ft 364 kts 37°
2026-05-04 13:36 24.98476 103.02568 27124 ft 366 kts 38°
2026-05-04 13:36 25.00342 103.04469 27901 ft 367 kts 38°
2026-05-04 13:36 25.02201 103.06397 28681 ft 367 kts 38°
2026-05-04 13:37 25.04050 103.08328 29447 ft 366 kts 38°
2026-05-04 13:37 25.05880 103.10252 30196 ft 364 kts 38°
2026-05-04 13:37 25.07693 103.12170 30949 ft 361 kts 38°
2026-05-04 13:37 25.09481 103.14060 31697 ft 356 kts 37°
2026-05-04 13:38 25.11273 103.15958 32353 ft 354 kts 37°
2026-05-04 13:38 25.13054 103.17839 32871 ft 355 kts 37°
2026-05-04 13:38 25.14847 103.19731 33341 ft 358 kts 36°
2026-05-04 13:38 25.16643 103.21627 33778 ft 362 kts 36°
2026-05-04 13:39 25.18455 103.23544 34333 ft 362 kts 36°
2026-05-04 13:39 25.20269 103.25465 34902 ft 361 kts 36°
2026-05-04 13:39 25.22082 103.27390 35470 ft 360 kts 36°
2026-05-04 13:39 25.23877 103.29295 35940 ft 361 kts 36°
2026-05-04 13:40 25.25701 103.31226 36273 ft 365 kts 36°
2026-05-04 13:40 25.27542 103.33176 36613 ft 369 kts 36°
2026-05-04 13:40 25.29389 103.35138 37041 ft 370 kts 36°
2026-05-04 13:40 25.31247 103.37112 37469 ft 370 kts 36°
2026-05-04 13:41 25.33104 103.39087 37896 ft 370 kts 36°
2026-05-04 13:41 25.34951 103.41054 38278 ft 371 kts 36°
2026-05-04 13:41 25.36816 103.43034 38548 ft 374 kts 36°
2026-05-04 13:42 25.40581 103.47047 39244 ft 377 kts 36°
2026-05-04 13:42 25.42491 103.49075 39266 ft 387 kts 36°
2026-05-04 13:42 25.46466 103.53305 39272 ft 406 kts 37°
2026-05-04 13:43 25.50618 103.57793 39269 ft 428 kts 40°
2026-05-04 13:43 25.52635 103.60267 39267 ft 440 kts 43°
2026-05-04 13:43 25.54540 103.62931 39266 ft 453 kts 47°
2026-05-04 13:44 25.56354 103.65839 39265 ft 464 kts 51°
2026-05-04 13:44 25.58125 103.68870 39261 ft 473 kts 52°
2026-05-04 13:44 25.61730 103.75126 39260 ft 490 kts 52°
2026-05-04 13:45 25.65458 103.81576 39267 ft 506 kts 53°
2026-05-04 13:45 25.69303 103.88225 39271 ft 519 kts 53°
2026-05-04 13:46 25.73174 103.94928 39213 ft 510 kts 53°
2026-05-04 13:46 25.76987 104.01538 39277 ft 510 kts 53°
2026-05-04 13:47 25.80912 104.08061 39281 ft 508 kts 50°
2026-05-04 13:47 25.85054 104.14387 39263 ft 506 kts 50°
2026-05-04 13:48 25.89166 104.20692 39253 ft 507 kts 50°
2026-05-04 13:48 25.93273 104.27048 39234 ft 507 kts 50°
2026-05-04 13:49 25.97368 104.33415 39214 ft 506 kts 50°
2026-05-04 13:49 26.01454 104.39786 39198 ft 506 kts 50°
2026-05-04 13:50 26.05515 104.46127 39193 ft 506 kts 51°
2026-05-04 13:50 26.09586 104.52496 39173 ft 505 kts 51°
2026-05-04 13:51 26.13537 104.58681 39174 ft 504 kts 51°
2026-05-04 13:51 26.17603 104.65057 39178 ft 503 kts 51°
2026-05-04 13:52 26.23739 104.74693 39189 ft 502 kts 52°
2026-05-04 13:53 26.27759 104.81020 39180 ft 502 kts 52°
2026-05-04 13:53 26.31776 104.87349 39176 ft 501 kts 52°
2026-05-04 13:54 26.37786 104.96835 39158 ft 500 kts 52°
2026-05-04 13:55 26.43782 105.06319 39143 ft 499 kts 52°
2026-05-04 13:55 26.49737 105.15754 39163 ft 497 kts 52°
2026-05-04 13:56 26.53725 105.22089 39147 ft 498 kts 52°
2026-05-04 13:57 26.59676 105.31555 39154 ft 496 kts 52°
2026-05-04 13:58 26.67593 105.44179 39150 ft 496 kts 52°
2026-05-04 13:58 26.73500 105.53622 39110 ft 495 kts 52°
2026-05-04 13:59 26.77428 105.59908 39113 ft 495 kts 52°
2026-05-04 14:00 26.83218 105.69202 39112 ft 495 kts 53°
2026-05-04 14:00 26.89028 105.78544 39107 ft 494 kts 53°
2026-05-04 14:01 26.92935 105.84836 39088 ft 492 kts 53°
2026-05-04 14:02 26.98775 105.94259 39076 ft 491 kts 52°
2026-05-04 14:02 27.02667 106.00595 39060 ft 492 kts 54°
2026-05-04 14:03 27.06114 106.07192 39070 ft 496 kts 59°
2026-05-04 14:03 27.09284 106.14102 39064 ft 499 kts 60°
2026-05-04 14:03 27.10860 106.17575 38915 ft 501 kts 60°
2026-05-04 14:04 27.13945 106.24358 38206 ft 503 kts 60°
2026-05-04 14:04 27.15532 106.27852 38343 ft 505 kts 60°
2026-05-04 14:04 27.17049 106.31190 38497 ft 508 kts 60°
2026-05-04 14:05 27.20262 106.38256 38797 ft 510 kts 60°
2026-05-04 14:05 27.21876 106.41807 38959 ft 510 kts 60°
2026-05-04 14:06 27.25098 106.48886 39037 ft 512 kts 60°
2026-05-04 14:06 27.28347 106.56055 39025 ft 515 kts 60°
2026-05-04 14:07 27.31603 106.63251 39020 ft 521 kts 60°
2026-05-04 14:07 27.34830 106.70405 39018 ft 522 kts 61°
2026-05-04 14:08 27.38105 106.77698 38858 ft 524 kts 63°
2026-05-04 14:08 27.39376 106.81551 38679 ft 529 kts 74°
2026-05-04 14:08 27.40049 106.85605 38262 ft 530 kts 83°
2026-05-04 14:08 27.40706 106.89666 38420 ft 530 kts 73°
2026-05-04 14:09 27.43905 106.97044 39009 ft 524 kts 50°
2026-05-04 14:09 27.46329 107.00103 39036 ft 521 kts 39°
2026-05-04 14:10 27.51174 107.06200 39039 ft 530 kts 56°
2026-05-04 14:10 27.54462 107.13647 39044 ft 533 kts 64°
2026-05-04 14:11 27.57585 107.21172 39043 ft 533 kts 61°
2026-05-04 14:11 27.62618 107.32317 39066 ft 533 kts 60°
2026-05-04 14:13 27.92432 107.98446 39027 ft 528 kts 60°
2026-05-04 14:13 27.95828 108.05814 39029 ft 527 kts 60°
2026-05-04 14:14 27.99165 108.13139 39016 ft 527 kts 60°
2026-05-04 14:14 28.04196 108.24242 39013 ft 529 kts 60°
2026-05-04 14:15 28.10884 108.39033 39003 ft 531 kts 60°
2026-05-04 14:16 28.15892 108.50162 39006 ft 531 kts 60°
2026-05-04 14:17 28.20917 108.61343 39020 ft 532 kts 60°
2026-05-04 14:18 28.25817 108.72284 39032 ft 532 kts 60°
2026-05-04 14:19 28.32504 108.87264 39031 ft 533 kts 60°
2026-05-04 14:19 28.35834 108.94744 39017 ft 532 kts 60°
2026-05-04 14:20 28.39172 109.02248 39007 ft 533 kts 60°
2026-05-04 14:20 28.42477 109.09718 39005 ft 533 kts 60°
2026-05-04 14:21 28.47472 109.21009 38998 ft 533 kts 60°
2026-05-04 14:21 28.50774 109.28504 38986 ft 532 kts 60°